[[{"header":{"parameterUnit":"m.s-1","parameterCategory":1,"la1":30.2991,"la2":30.254,"lo1":-89.0895,"lo2":-89.0444,"dy":0.0017,"dx":0.0017,"nx":28,"ny":28,"refTime":"2024-05-12T21:00:00:Z","depth":0,"parameterNumber":2,"parameterNumberName":"U-component_of_WINDS"},"data":[0,0,0,0,0,0,0,0,0,0,0,0,0,0,0,0,0,0,0,0,0,0,0,0,0,0,0,0,0,0,0,0,0,0,0,0,0,0,0,0,0,0,0,0,0,0,0,0,0,0,0,0,0,0,0,0,0,0,0.6926,0.6929,0,0.716,0.7163,0.7166,0.7279,0.7278,0.7278,0.7278,0.7522,0.7528,0.7535,0,0,0,0,0,0,0,0,0,0,0,0,0,0.6582,0.6587,0.6926,0.6929,0.6932,0.716,0.7163,0.7166,0.7279,0.7278,0.7278,0.7278,0.752,0.7528,0.7536,0,0,0,0,0,0,0,0,0,0,0,0,0,0.6765,0.6589,0.6925,0.7015,0.7026,0.7159,0.7163,0.7167,0.7279,0.7278,0.7278,0.7278,0.7517,0.7527,0.7537,0.76,0,0,0.7567,0.7571,0,0,0,0,0,0,0,0,0.6754,0.6778,0.6999,0.7009,0.7021,0.719,0.7131,0.7312,0.7279,0.7183,0.7278,0.7278,0.7412,0.743,0.7475,0.7611,0.7622,0.7568,0.7574,0.7578,0.7581,0,0,0,0,0,0,0,0.6742,0.6768,0.7019,0.7002,0.7016,0.7046,0.7072,0.7166,0.7295,0.7191,0.72,0.7226,0.7418,0.7465,0.7481,0.7625,0.7567,0.7576,0.7582,0.7586,0.7829,0.7829,0,0,0,0,0,0,0.6714,0.6757,0.7011,0.7026,0.6885,0.7052,0.7081,0.7136,0.7294,0.7318,0.7226,0.723,0.7448,0.747,0.749,0.7577,0.7578,0.7587,0.7593,0.7828,0.7829,0.7829,0,0,0,0,0,0,0.6706,0.6735,0.7002,0.6894,0.693,0.7058,0.7119,0.7141,0.7188,0.7321,0.7345,0.7249,0.7449,0.7476,0.7572,0.7586,0.7591,0.76,0.7827,0.7828,0.7829,0.7748,0,0,0,0,0,0,0.6695,0.6732,0.6755,0.6893,0.6935,0.7078,0.712,0.7145,0.7204,0.7212,0.7349,0.7372,0.7451,0.7557,0.7582,0.76,0.7608,0.7827,0.7828,0.7829,0.775,0.7746,0.7742,0,0,0,0,0,0.6683,0.6724,0.6756,0.6786,0.6967,0.7078,0.7102,0.7191,0.7204,0.7231,0.7316,0.7368,0.7581,0.7566,0.7595,0.7616,0.7826,0.7827,0.7829,0.7751,0.7746,0.7742,0,0,0,0,0,0,0.6585,0.6743,0.6781,0.6867,0.6958,0.7097,0.7132,0.7183,0.7273,0.7277,0.7385,0.7415,0.7501,0.7569,0.7549,0.7687,0.7709,0.7716,0.764,0.7636,0.7632,0.7615,0.7616,0,0,0,0,0,0.6573,0.6648,0.6783,0.6846,0.689,0.7003,0.7055,0.7115,0.7215,0.7254,0.7347,0.7442,0.7532,0.7588,0.7677,0.776,0.7793,0.779,0.7786,0.7782,0.7787,0.7839,0.784,0.7833,0.7833,0.7833,0,0,0.655,0.6646,0.6686,0.6829,0.6907,0.6984,0.7035,0.7114,0.7173,0.7267,0.7362,0.7434,0.7548,0.7638,0.7683,0.7697,0.7796,0.7784,0.7779,0.7787,0.784,0.7841,0.7841,0.7834,0.7834,0.7834,0,0,0.6547,0.6626,0.6688,0.6765,0.6882,0.6958,0.6972,0.7104,0.7155,0.7253,0.7325,0.7399,0.7548,0.7628,0.7687,0.7717,0.7769,0.7743,0.7724,0.7773,0.7773,0.7774,0.7787,0.779,0.7748,0.7748,0.7748,0,0.6503,0.6621,0.6714,0.679,0.6852,0.6939,0.7005,0.7075,0.7216,0.7257,0.7271,0.7463,0.7546,0.7657,0.7664,0.7709,0.7732,0.7728,0.7765,0.7768,0.777,0.7783,0.7787,0.7744,0.7744,0.7745,0.7745,0,0.6563,0.6644,0.6681,0.6813,0.6879,0.6949,0.7055,0.7111,0.7166,0.7241,0.7341,0.7444,0.7556,0.7587,0.7642,0.7707,0.7713,0.7744,0.7768,0.7765,0.7779,0.7785,0.7738,0.774,0.7741,0.7742,0,0,0.6504,0.6688,0.67,0.6762,0.6899,0.6964,0.7039,0.7148,0.7195,0.729,0.7357,0.7483,0.7514,0.7582,0.7647,0.769,0.771,0.7718,0.7722,0.7714,0.779,0.7766,0.777,0.7745,0.7746,0.7747,0.7781,0,0.6521,0.6658,0.6745,0.6848,0.6926,0.7011,0.7077,0.7169,0.7241,0.7319,0.74,0.7488,0.7521,0.7563,0.761,0.7697,0.7727,0.7696,0.781,0.7813,0.7779,0.7777,0.7751,0.7778,0.7787,0.7788,0.7789,0,0.6559,0.665,0.6761,0.6891,0.6927,0.6984,0.7092,0.7165,0.7272,0.7322,0.7398,0.7465,0.755,0.7567,0.7688,0.7665,0.7717,0.7768,0.7771,0.7786,0.7801,0.7793,0.7789,0.7793,0.7798,0.7797,0.7797,0,0.6506,0.6657,0.6744,0.6794,0.6948,0.6986,0.7052,0.716,0.722,0.7316,0.7357,0.7461,0.7518,0.7598,0.7692,0.7695,0.7805,0.7828,0.785,0.7848,0.7869,0.7867,0.7875,0.7901,0.7901,0.7901,0.7901,0,0.6516,0.6581,0.6722,0.6775,0.6851,0.6952,0.7025,0.7099,0.7193,0.7264,0.7345,0.741,0.7529,0.761,0.7684,0.7774,0.7799,0.7844,0.7863,0.7837,0.7831,0.7873,0.7874,0.7902,0.7902,0.7902,0.7902,0,0.647,0.6567,0.6667,0.6804,0.6841,0.6891,0.701,0.7066,0.7143,0.7231,0.7258,0.7379,0.7479,0.758,0.7714,0.7764,0.7853,0.7878,0.7816,0.7827,0.7843,0.7841,0.7879,0.789,0.7907,0.7907,0.7906,0,0.647,0.6522,0.6665,0.6718,0.6782,0.6865,0.6928,0.703,0.7092,0.722,0.7261,0.7366,0.7455,0.761,0.7712,0.7816,0.7845,0.7852,0.7861,0.7835,0.7847,0.7843,0.785,0.7848,0.7847,0.7846,0.7846,0,0.6462,0.6508,0.6594,0.6697,0.6769,0.6856,0.6946,0.6985,0.7106,0.7172,0.7274,0.7343,0.748,0.7584,0.77,0.7771,0.783,0.7842,0.7853,0.7827,0.779,0.7812,0.7807,0.7841,0.7841,0.7842,0.7842,0.7842,0.644,0.6491,0.66,0.6694,0.6773,0.6855,0.6915,0.7,0.7086,0.7205,0.7261,0.7363,0.7473,0.7635,0.7704,0.7788,0.7804,0.7819,0.7823,0.7826,0.782,0.7775,0.7809,0.7809,0.781,0.781,0.781,0,0.6437,0.6511,0.6597,0.672,0.6795,0.6842,0.6945,0.7005,0.7093,0.7189,0.7276,0.7394,0.7496,0.7606,0.7715,0.7761,0.7791,0.7787,0.7785,0.7801,0.7799,0.7779,0.7761,0.7761,0.7761,0.7761,0.7761,0.7761,0.6444,0.6533,0.6592,0.6722,0.6797,0.6897,0.6952,0.703,0.7107,0.7235,0.732,0.739,0.7494,0.7611,0.7708,0.7738,0.7775,0.7763,0.7801,0.7797,0.78,0.7804,0.7786,0.777,0.777,0.7796,0.7797,0.7797]},{"header":{"parameterUnit":"m.s-1","parameterCategory":1,"la1":30.2991,"la2":30.254,"lo1":-89.0895,"lo2":-89.0444,"dy":0.0017,"dx":0.0017,"nx":28,"ny":28,"refTime":"2024-05-12T21:00:00:Z","depth":0,"parameterNumber":3,"parameterNumberName":"V-component_of_WINDS"},"data":[0,0,0,0,0,0,0,0,0,0,0,0,0,0,0,0,0,0,0,0,0,0,0,0,0,0,0,0,0,0,0,0,0,0,0,0,0,0,0,0,0,0,0,0,0,0,0,0,0,0,0,0,0,0,0,0,0,0,4.5972,4.5972,0,4.599,4.599,4.599,4.5946,4.5945,4.5943,4.5942,4.5957,4.5959,4.596,0,0,0,0,0,0,0,0,0,0,0,0,0,4.5897,4.5899,4.5972,4.5972,4.5972,4.599,4.599,4.599,4.5946,4.5945,4.5943,4.5941,4.5957,4.5959,4.5961,0,0,0,0,0,0,0,0,0,0,0,0,0,4.5924,4.5899,4.5972,4.5952,4.5951,4.599,4.599,4.599,4.5947,4.5945,4.5943,4.5941,4.5956,4.5958,4.5961,4.6018,0,0,4.5969,4.597,0,0,0,0,0,0,0,0,4.5922,4.5927,4.5955,4.5954,4.5952,4.5964,4.5969,4.5999,4.5947,4.5948,4.5942,4.594,4.5961,4.5963,4.5971,4.6019,4.6019,4.5969,4.597,4.5972,4.5972,0,0,0,0,0,0,0,4.5921,4.5926,4.5979,4.5955,4.5954,4.5942,4.5944,4.5975,4.5966,4.5948,4.5945,4.5948,4.596,4.5968,4.5971,4.602,4.5969,4.5971,4.5973,4.5974,4.6116,4.6118,0,0,0,0,0,0,4.5922,4.5924,4.5978,4.5979,4.5932,4.5945,4.5947,4.5962,4.5965,4.5964,4.595,4.5946,4.5965,4.5968,4.5971,4.6037,4.5971,4.5974,4.5975,4.6114,4.6117,4.6119,0,0,0,0,0,0,4.592,4.5927,4.5977,4.5951,4.5957,4.5949,4.5966,4.5963,4.5972,4.5967,4.5964,4.596,4.5963,4.5967,4.6007,4.6037,4.5975,4.5977,4.6111,4.6115,4.6118,4.6171,0,0,0,0,0,0,4.5918,4.5927,4.5948,4.5952,4.5958,4.6013,4.5968,4.5965,4.5977,4.5972,4.5976,4.5975,4.5962,4.6003,4.601,4.604,4.5979,4.6108,4.6113,4.6117,4.6166,4.6176,4.6184,0,0,0,0,0,4.5916,4.5961,4.5949,4.5956,4.5985,4.6015,4.6019,4.6004,4.598,4.6001,4.5998,4.5974,4.6034,4.6008,4.6014,4.6046,4.6106,4.6111,4.6116,4.6163,4.6174,4.6184,0,0,0,0,0,0,4.5959,4.5961,4.5948,4.5997,4.6007,4.6008,4.6034,4.6017,4.6033,4.6027,4.6008,4.601,4.6053,4.6054,4.6024,4.6102,4.6066,4.6072,4.6099,4.6109,4.6118,4.6115,4.5981,0,0,0,0,0,4.5975,4.6,4.6001,4.6043,4.6049,4.6041,4.6054,4.6043,4.6051,4.6054,4.6054,4.6063,4.6083,4.6097,4.6116,4.6168,4.6168,4.6193,4.6202,4.6209,4.6214,4.6241,4.6252,4.6136,4.6136,4.6136,0,0,4.6006,4.6011,4.6027,4.6052,4.6058,4.6084,4.6045,4.6073,4.6092,4.6058,4.6095,4.6096,4.6105,4.6151,4.6171,4.6153,4.6247,4.6215,4.6221,4.6222,4.6248,4.6259,4.6268,4.6139,4.6139,4.6138,0,0,4.6077,4.6084,4.612,4.6128,4.6139,4.6134,4.6143,4.6148,4.6147,4.6185,4.6161,4.6183,4.6219,4.6226,4.6234,4.6312,4.629,4.6319,4.6363,4.639,4.6399,4.6407,4.6433,4.6443,4.6324,4.6324,4.6325,0,4.6114,4.6152,4.614,4.6171,4.6182,4.6157,4.6193,4.6201,4.6217,4.6225,4.6206,4.6251,4.6255,4.6302,4.6322,4.633,4.6339,4.6316,4.6399,4.6407,4.6414,4.6439,4.6449,4.6328,4.6327,4.6327,4.6327,0,4.6197,4.6225,4.6253,4.6271,4.6286,4.6319,4.6312,4.6329,4.6318,4.6315,4.6354,4.6359,4.6378,4.6389,4.6378,4.6436,4.6424,4.6402,4.6365,4.6428,4.6451,4.6461,4.6332,4.6331,4.633,4.6329,0,0,4.629,4.6304,4.6314,4.6323,4.6335,4.6355,4.6389,4.641,4.6424,4.6437,4.6463,4.6496,4.6477,4.6487,4.6476,4.6501,4.6561,4.6476,4.6476,4.649,4.6623,4.6638,4.6649,4.6548,4.655,4.6552,4.6622,0,4.6358,4.6415,4.6407,4.6462,4.6487,4.6465,4.6494,4.6505,4.6504,4.6525,4.6524,4.6547,4.652,4.6526,4.655,4.6548,4.6587,4.6543,4.6571,4.6572,4.6566,4.6661,4.6676,4.6742,4.6631,4.6633,4.6634,0,4.6443,4.6462,4.652,4.653,4.654,4.6566,4.6585,4.6606,4.6618,4.6616,4.6629,4.6615,4.6648,4.6614,4.6658,4.6629,4.664,4.6642,4.6644,4.6643,4.6604,4.6661,4.6763,4.6772,4.6648,4.6647,4.6646,0,4.6503,4.6543,4.6583,4.6591,4.6604,4.6623,4.6629,4.6639,4.6653,4.667,4.6679,4.6699,4.671,4.6726,4.6718,4.6694,4.6763,4.6728,4.6761,4.6761,4.6774,4.6772,4.6877,4.6786,4.6786,4.6786,4.6785,0,4.6577,4.6613,4.661,4.6634,4.6674,4.6666,4.6705,4.6708,4.6719,4.6743,4.6726,4.6748,4.6738,4.676,4.6754,4.6792,4.6797,4.6795,4.6793,4.6795,4.6795,4.68,4.6794,4.6788,4.6788,4.6787,4.6787,0,4.6649,4.6648,4.669,4.6701,4.6705,4.6734,4.6742,4.6765,4.6765,4.6796,4.6803,4.6802,4.6827,4.6822,4.685,4.6846,4.6893,4.6885,4.6889,4.6886,4.6918,4.6915,4.7027,4.7041,4.6943,4.6944,4.6945,0,4.6694,4.6722,4.6737,4.6753,4.6761,4.6787,4.6802,4.6796,4.6812,4.6829,4.685,4.6875,4.6893,4.6935,4.6936,4.6958,4.695,4.6988,4.6952,4.6955,4.6948,4.6945,4.6948,4.6994,4.6995,4.6996,4.6996,0,4.6776,4.6775,4.6798,4.6822,4.6841,4.6858,4.6874,4.6888,4.6884,4.6903,4.693,4.6945,4.6975,4.6999,4.702,4.7025,4.701,4.7009,4.7017,4.7018,4.7018,4.7017,4.6905,4.7005,4.7004,4.7003,4.7003,4.7002,4.6834,4.6858,4.6873,4.6899,4.6912,4.6928,4.695,4.6955,4.6978,4.7003,4.6998,4.7029,4.7042,4.7068,4.7076,4.71,4.7085,4.7097,4.71,4.7103,4.7106,4.7017,4.7104,4.7103,4.7103,4.7103,4.7103,0,4.6913,4.6923,4.6947,4.6972,4.6993,4.6981,4.6999,4.7017,4.7044,4.7059,4.7079,4.7111,4.7135,4.714,4.7164,4.7181,4.7175,4.7187,4.7184,4.7186,4.7118,4.7108,4.7192,4.7192,4.7192,4.7192,4.7192,4.7192,4.6956,4.6996,4.6998,4.7044,4.7053,4.7084,4.7096,4.7111,4.7122,4.7159,4.718,4.7185,4.7195,4.722,4.7242,4.7243,4.7251,4.7266,4.7264,4.72,4.7191,4.7182,4.7172,4.7268,4.7268,4.7329,4.733,4.733]}]]